(193) Ambrosia
ephemeris date magn radius delta ra dec elong phase
Today5 Sep 202615.83.101 AU3.803 AU13h09m-14°50'40.1°12.1°
Opposition3 Jun 202714.73.373 AU2.390 AU16h33m-39°05'163.1°5.0°
(193) Ambrosia - 2026-09-05
astro.vanbuitenen.nl


 
-1 year
-1 month
-1 day
Now
+1 day
+1 month
+1 year

The interactive orbit chart above shows the body's path through the solar system and its position at the given date. Green and blue lines are shown perpendicular to the ecliptic plane: Green if the path is above the ecliptic plane, blue if it is below. (Left-click and drag to rotate the view; Right-click and drag to move the view; Use scroll wheel to zoom in our out.)

The orbital elements of Ambrosia are:

            e (Eccentricity)                : 0.2983284
            a (Semimajor axis)              : 2.5981331
            i (Inclination)                 : 11.99719
            Ω (Longitude of ascending node) : 349.46588
            ω (Argument of perihelion)      : 82.50056
            M (Mean anomaly)                : 96.71027
            Epoch                           : 2026 Jun 09

            L (Longitude of perihelion)     : 71.80095
            B (Latitude of perihelion)      : 11.89306
            P (Orbital period in years)     : 4.19            
        

The light curve chart below shows the estimated development of the minor planet's magnitude.


The all-sky chart below shows the path of the minor planet over the same period as the light curve. The current position is marked yellow.





The following chart shows the path of the minor planet in the next few days. The field of view is optimized for (~10x50) binoculars and finderscopes.




Ephemerides:
Date       Time       RA (2000)    DEC (2000)    delta   radius  elong  phase   PA    magn
2026-09-05 00:00 UT   13 09 42.8   -14 50 29     3.803    3.101   40.1   12.1   121   15.8 
2026-09-05 05:07 UT   13 09 58.9   -14 52 09     3.805    3.101   40.0   12.1   121   15.8 
2026-09-06 00:00 UT   13 10 58.3   -14 58 17     3.814    3.103   39.5   11.9   121   15.8 
2026-09-07 00:00 UT   13 12 14.1   -15 06 06     3.824    3.105   38.9   11.8   121   15.8 
2026-09-08 00:00 UT   13 13 30.1   -15 13 55     3.835    3.107   38.3   11.6   121   15.8 
2026-09-09 00:00 UT   13 14 46.4   -15 21 46     3.845    3.109   37.6   11.4   121   15.9 
2026-09-10 00:00 UT   13 16 02.9   -15 29 36     3.855    3.111   37.0   11.2   122   15.9 
2026-09-11 00:00 UT   13 17 19.7   -15 37 28     3.866    3.113   36.4   11.1   122   15.9 
2026-09-12 00:00 UT   13 18 36.6   -15 45 20     3.875    3.115   35.8   10.9   122   15.9 
2026-09-13 00:00 UT   13 19 53.8   -15 53 13     3.885    3.117   35.1   10.7   122   15.9 
2026-09-14 00:00 UT   13 21 11.2   -16 01 06     3.895    3.119   34.5   10.5   122   15.9 
2026-09-15 00:00 UT   13 22 28.9   -16 08 60     3.905    3.121   33.9   10.4   122   15.9 
2026-09-16 00:00 UT   13 23 46.7   -16 16 54     3.914    3.123   33.3   10.2   123   15.9 
2026-09-17 00:00 UT   13 25 04.7   -16 24 48     3.923    3.125   32.7   10.0   123   15.8 
2026-09-18 00:00 UT   13 26 23.0   -16 32 43     3.932    3.127   32.1    9.8   123   15.8 
2026-09-19 00:00 UT   13 27 41.5   -16 40 38     3.941    3.129   31.4    9.6   123   15.8 
2026-09-20 00:00 UT   13 29 00.1   -16 48 33     3.950    3.130   30.8    9.5   124   15.8 
2026-09-21 00:00 UT   13 30 19.0   -16 56 28     3.959    3.132   30.2    9.3   124   15.8 
2026-09-22 00:00 UT   13 31 38.0   -17 04 24     3.968    3.134   29.6    9.1   124   15.8 
2026-09-23 00:00 UT   13 32 57.2   -17 12 20     3.976    3.136   29.0    8.9   124   15.8 
2026-09-24 00:00 UT   13 34 16.6   -17 20 15     3.984    3.138   28.4    8.7   125   15.8 
2026-09-25 00:00 UT   13 35 36.2   -17 28 11     3.992    3.140   27.8    8.6   125   15.8 
2026-09-26 00:00 UT   13 36 56.0   -17 36 07     4.000    3.142   27.2    8.4   125   15.8 
2026-09-27 00:00 UT   13 38 16.0   -17 44 02     4.008    3.144   26.6    8.2   126   15.8 
2026-09-28 00:00 UT   13 39 36.1   -17 51 58     4.016    3.146   25.9    8.0   126   15.8 
2026-09-29 00:00 UT   13 40 56.4   -17 59 53     4.024    3.147   25.3    7.8   126   15.8 
2026-09-30 00:00 UT   13 42 16.9   -18 07 49     4.031    3.149   24.7    7.6   127   15.8 


    Terminology:
            
    delta:  distance between minor planet and earth in AU
    radius: distance between minor planet and sun in AU
    magn:   magnitude (brightness) estimate    
    ra:     right ascension in hours (24h = 360deg)
    dec:    declination in degrees
    elong:  elongation in degrees (angle sun-earth-minor planet)    
    phase:  phase angle in degrees (angle sun-minor planet-earth)        
    AU:     Astronomical Unit (mean distance between earth and sun: 149597870.7 km
    

Orbital elements provided by the MPC (Minor Planet Center).
Calculations by a modified version of AAPlus, a C# implementation of the AA+ project by PJ Naughter from the algorithms presented in the book "Astronomical Algorithms" by Jean Meeus.
NGC2000 dso catalog and star labels from VizieR as provided by the Strasbourg astronomical Data Center.
Tycho2 catalog from the ESO archive.